Overview Statistics Trail Chart Weather Telemetry Raw packets
 

This is the latest recevied weather packets stored in our database for station/object KG5WBN. If no packets are shown the sender has not sent any weather packets the latest 10 day(s).

<< 4 5 6 7 8 9 10 >>
Time Temp. Humidity Pressure Rain* Wind** Luminosity Snow
1788537039 25.56° C 99% 1014.6 hPa 0 mm - 158 W/m² -
1788536746 26.11° C 99% 1014.9 hPa 0 mm - 155 W/m² -
1788536427 26.67° C 99% 1014.6 hPa 0 mm - 144 W/m² -
1788536126 25.56° C 99% 1014.6 hPa 0 mm - 121 W/m² -
1788535823 26.11° C 99% 1014.6 hPa 0 mm - 126 W/m² -
1788535519 26.67° C 99% 1014.6 hPa 0 mm - 152 W/m² -
1788535222 26.67° C 99% 1014.6 hPa 0 mm - 139 W/m² -
1788534908 26.11° C 99% 1014.6 hPa 0 mm - 126 W/m² -
1788534603 26.67° C 99% 1014.9 hPa 0 mm - 118 W/m² -
1788534298 26.67° C 99% 1014.9 hPa 0 mm - 112 W/m² -
1788533996 26.67° C 99% 1014.9 hPa 0 mm - 112 W/m² -
1788533692 25.56° C 99% 1014.9 hPa 0 mm - 117 W/m² -
1788533387 26.67° C 99% 1014.6 hPa 0 mm - 124 W/m² -
1788533083 26.67° C 99% 1014.6 hPa 0 mm - 134 W/m² -
1788532778 26.67° C 99% 1014.6 hPa 0 mm - 134 W/m² -
1788532475 26.67° C 99% 1014.9 hPa 0 mm - 122 W/m² -
1788532176 26.67° C 99% 1014.6 hPa 0 mm - 122 W/m² -
1788531867 26.11° C 99% 1014.6 hPa 0 mm - 103 W/m² -
1788531561 26.67° C 99% 1014.6 hPa 0 mm - 97 W/m² -
1788531256 26.11° C 99% 1014.6 hPa 0 mm - 96 W/m² -
1788530953 26.11° C 99% 1014.6 hPa 0 mm - 63 W/m² -
1788530652 26.11° C 99% 1014.6 hPa 0 mm - 56 W/m² -
1788530352 25.56° C 99% 1014.6 hPa 0 mm - 57 W/m² -
1788530052 25.56° C 99% 1014.6 hPa 0 mm - 63 W/m² -
1788529748 25.56° C 99% 1014.6 hPa 0 mm - 77 W/m² -

* Rain latest hour (hover to see other rain measurements)
** Current wind speed in m/s (hover to see current wind gust speed)